Regional Weather Roundup
Issued by NWS

Home | Current Version | Previous Version | Text Only | Print | Product List | Glossary Off
Versions: 1 2 3 4 5 6 7 8 9 10 11 12 13 14 15 16 17 18 19 20 21 22 23 24 25 26 27 28 29 30 31 32 33 34 35 36 37 38 39 40 41 42 43 44 45 46 47 48 49 50

446
ASUS43 KTOP 291808
RWRKS

WEATHER ROUNDUP FOR KANSAS
NATIONAL WEATHER SERVICE GOODLAND KS
100 PM CDT SUN MAY 29 2016

NOTE:  "FAIR" INDICATES FEW OR NO CLOUDS BELOW 12,000 FEET WITH NO
SIGNIFICANT WEATHER AND/OR OBSTRUCTIONS TO VISIBILITY.

KSZ001>006-013>018-027>032-041>047-291900-
NORTHWEST KANSAS

CITY           SKY/WX    TMP DP  RH WIND       PRES   REMARKS
GOODLAND       SUNNY     77  54  44 S15       30.10F
6HR MIN TEMP:  49; 6HR MAX TEMP:  78;

HAYS           SUNNY     82  61  47 SW13      30.10S
HILL CITY      MOSUNNY   86  56  35 SW9       30.09F
6HR MIN TEMP:  54; 6HR MAX TEMP:  86;

RUSSELL        SUNNY     83  58  42 SW12G18   30.08F
6HR MIN TEMP:  58; 6HR MAX TEMP:  83;

$$

KSZ061>065-074>080-084>089-291900-
SOUTHWEST KANSAS

CITY           SKY/WX    TMP DP  RH WIND       PRES   REMARKS
DODGE CITY     PTSUNNY   74  62  66 S18       30.15R
6HR MIN TEMP:  59; 6HR MAX TEMP:  78;

ELKHART          N/A     78  60  53 S22         N/A
GARDEN CITY    CLOUDY    82  54  37 S22G31    30.12S
6HR MIN TEMP:  56; 6HR MAX TEMP:  83;

GREAT BEND     CLOUDY    81  63  54 S16       30.10S
LIBERAL        CLOUDY    72  57  60 SW6       30.15F
PRATT          CLOUDY    73  60  65 SW17      30.13F
6HR MIN TEMP:  59; 6HR MAX TEMP:  76;

$$

KSZ066>073-081>083-090>101-291900-
SOUTHEAST KANSAS

CITY           SKY/WX    TMP DP  RH WIND       PRES   REMARKS
CHANUTE        CLOUDY    83  66  56 S9        30.12S
6HR MIN TEMP:  62; 6HR MAX TEMP:  83;

COFFEYVILLE    CLOUDY    82  67  60 SW6       30.12S
6HR MIN TEMP:  64; 6HR MAX TEMP:  85;

HUTCHINSON     PTSUNNY   85  65  51 SW15      30.10F
6HR MIN TEMP:  59; 6HR MAX TEMP:  85;

MEDICINE LODGE   N/A     75  57  53 SW5       30.11F
NEWTON         CLOUDY    79  64  61 S8          N/A
PARSONS        PTSUNNY   81  69  67 SW3       30.14S
6HR MIN TEMP:  61; 6HR MAX TEMP:  83;

WICHITA INTL   CLOUDY    81  70  69 SW10      30.12R
6HR MIN TEMP:  63; 6HR MAX TEMP:  82;

WICHITA JABRA  CLOUDY    80  70  71 SW9       30.11S
6HR MIN TEMP:  62; 6HR MAX TEMP:  82;

WINFIELD       CLOUDY    81  69  67 SW6       30.13S
6HR MIN TEMP:  62; 6HR MAX TEMP:  82;

$$

KSZ007>012-019>026-033>040-048>060-102>105-291900-
NORTHEAST KANSAS

CITY           SKY/WX    TMP DP  RH WIND       PRES   REMARKS
CONCORDIA      SUNNY     81  60  48 W6        30.10F
6HR MIN TEMP:  61; 6HR MAX TEMP:  81; 6HR PCP:  0.03;

EMPORIA        MOSUNNY   82  61  48 VRB3      30.12S
6HR MIN TEMP:  61; 6HR MAX TEMP:  84;

LAWRENCE       SUNNY     84  59  42 VRB3      30.10F
6HR MIN TEMP:  60; 6HR MAX TEMP:  84;

MANHATTAN      SUNNY     85  62  46 SW6       30.09F
6HR MIN TEMP:  60; 6HR MAX TEMP:  85;

MARYSVILLE     SUNNY     81  63  54 W7        30.09F
OLATHE IND     SUNNY     84  57  39 SW7       30.12F
6HR MIN TEMP:  60; 6HR MAX TEMP:  84; 6HR PCP: TRACE;

OLATHE EXE     SUNNY     82  58  43 W8        30.11F
6HR MIN TEMP:  60; 6HR MAX TEMP:  82;

SALINA         SUNNY     87  62  43 S7        30.09F
6HR MIN TEMP:  60; 6HR MAX TEMP:  87;

TOPEKA BILLARD SUNNY     85  55  35 W7        30.09F
6HR MIN TEMP:  61; 6HR MAX TEMP:  85;

TOPEKA FORBES  SUNNY     86  57  37 W8        30.10F
6HR MIN TEMP:  63; 6HR MAX TEMP:  86;

$$




USA.gov is the U.S. government's official web portal to all federal, state and local government web resources and services.